FW8576 Weather Reports


Display with metric or nautical units.
time (UTC)temp
F
wind
direction
speed
MPH
gust
MPH
rain 1hr
in
rain 24hr
in
rain mn
in
humidity
%
barometer
mb
20260505014330 63 270 0.0 0.0 0.00 0.00 0.00 72 1019.2
20260505013826 64 270 0.0 0.0 0.00 0.00 0.00 71 1019.4
20260505013324 64 151 0.0 0.0 0.00 0.00 0.00 69 1019.6
20260505012822 64 151 0.0 0.0 0.00 0.00 0.00 70 1019.2
20260505012319 65 151 0.0 0.0 0.00 0.00 0.00 67 1019.2
20260505011815 65 151 0.0 0.0 0.00 0.00 0.00 64 1019.3
20260505011312 65 151 0.0 0.0 0.00 0.00 0.00 59 1019.1
20260505010808 66 151 0.0 0.0 0.00 0.00 0.00 58 1019.4
20260505010304 67 151 0.0 0.0 0.00 0.00 0.00 56 1019.3
20260505005801 67 151 0.0 0.0 0.00 0.00 0.00 56 1019.1
20260505005258 68 151 0.0 1.0 0.00 0.00 0.00 55 1019.2
20260505004755 68 90 0.0 0.0 0.00 0.00 0.00 53 1018.9
20260505004251 68 90 0.0 0.0 0.00 0.00 0.00 53 1019.1
20260505003748 69 169 0.0 0.0 0.00 0.00 0.00 51 1018.7
20260505003246 69 169 0.0 0.0 0.00 0.00 0.00 50 1018.9
20260505002742 69 169 0.0 0.0 0.00 0.00 0.00 49 1019.0
20260505002240 70 169 0.0 0.0 0.00 0.00 0.00 47 1019.1
20260505001737 71 169 0.0 0.0 0.00 0.00 0.00 46 1019.1
20260505001235 71 169 0.0 0.0 0.00 0.00 0.00 45 1018.8
20260505000731 72 169 0.0 2.0 0.00 0.00 0.00 44 1018.7
20260505000229 73 186 1.0 1.0 0.00 0.00 0.00 44 1018.7
20260504235725 73 99 0.0 1.0 0.00 0.00 0.00 44 1018.8
20260504235221 73 209 0.0 2.0 0.00 0.00 0.00 44 1018.8
20260504234719 73 203 0.0 2.0 0.00 0.00 0.00 43 1018.8
20260504234216 74 254 0.0 3.0 0.00 0.00 0.00 42 1018.7
20260504233712 74 160 0.0 3.0 0.00 0.00 0.00 41 1018.6
20260504233208 74 187 0.0 2.0 0.00 0.00 0.00 40 1018.5
20260504232706 75 216 2.0 4.0 0.00 0.00 0.00 39 1018.5
20260504232203 75 180 0.0 3.0 0.00 0.00 0.00 39 1018.5
20260504231659 76 190 3.0 4.0 0.00 0.00 0.00 36 1018.5
20260504231155 76 206 0.0 5.0 0.00 0.00 0.00 36 1018.9
20260504230652 77 180 2.0 5.0 0.00 0.00 0.00 36 1018.5
20260504230151 77 237 2.0 5.0 0.00 0.00 0.00 36 1018.6
20260504225649 77 236 4.0 5.0 0.00 0.00 0.00 37 1018.9
20260504225144 77 180 0.0 5.0 0.00 0.00 0.00 38 1018.7
20260504224642 77 203 0.0 5.0 0.00 0.00 0.00 38 1018.6
20260504224138 77 151 1.0 7.0 0.00 0.00 0.00 38 1018.5
20260504223636 77 239 2.0 5.0 0.00 0.00 0.00 38 1018.8
20260504223131 77 206 3.0 5.0 0.00 0.00 0.00 37 1018.8
20260504222628 77 90 3.0 11.0 0.00 0.00 0.00 38 1018.9
20260504222125 77 188 3.0 13.0 0.00 0.00 0.00 37 1018.6
20260504221623 77 225 4.0 10.0 0.00 0.00 0.00 37 1018.7
20260504221120 78 205 5.0 9.0 0.00 0.00 0.00 36 1018.8
20260504220616 79 185 5.0 7.0 0.00 0.00 0.00 35 1018.8
20260504220114 80 186 5.0 7.0 0.00 0.00 0.00 35 1018.6
20260504215609 79 198 4.0 7.0 0.00 0.00 0.00 35 1018.8
20260504215107 78 176 5.0 7.0 0.00 0.00 0.00 34 1018.5
20260504214603 78 193 6.0 7.0 0.00 0.00 0.00 34 1018.6
20260504214059 78 202 4.0 6.0 0.00 0.00 0.00 35 1018.4
20260504213556 79 169 6.0 8.0 0.00 0.00 0.00 35 1018.6
20260504213053 80 198 2.0 7.0 0.00 0.00 0.00 33 1018.5
20260504212549 81 200 4.0 8.0 0.00 0.00 0.00 33 1018.5
20260504212046 81 252 7.0 10.0 0.00 0.00 0.00 32 1018.6
20260504211543 81 207 9.0 9.0 0.00 0.00 0.00 32 1018.3
20260504211040 82 148 7.0 10.0 0.00 0.00 0.00 32 1018.5
20260504210537 82 221 8.0 8.0 0.00 0.00 0.00 31 1018.2
20260504210034 81 222 7.0 11.0 0.00 0.00 0.00 30 1018.6
20260504205532 82 234 5.0 7.0 0.00 0.00 0.00 31 1018.3
20260504205029 82 244 3.0 13.0 0.00 0.00 0.00 30 1018.5
20260504204527 81 213 4.0 9.0 0.00 0.00 0.00 33 1018.6
20260504204026 81 231 0.0 11.0 0.00 0.00 0.00 31 1018.7
20260504203524 82 206 2.0 7.0 0.00 0.00 0.00 31 1018.8
20260504203021 82 212 2.0 8.0 0.00 0.00 0.00 34 1018.8
20260504202516 82 208 6.0 6.0 0.00 0.00 0.00 31 1018.8
20260504202013 82 0 0.0 3.0 0.00 0.00 0.00 28 1018.6
20260504201510 81 162 4.0 7.0 0.00 0.00 0.00 30 1019.0
20260504201008 80 258 2.0 10.0 0.00 0.00 0.00 28 1018.9
20260504200504 82 188 0.0 5.0 0.00 0.00 0.00 28 1018.9
20260504200001 83 292 2.0 5.0 0.00 0.00 0.00 29 1018.9
20260504195457 81 219 4.0 8.0 0.00 0.00 0.00 27 1019.0
20260504194954 81 210 2.0 8.0 0.00 0.00 0.00 30 1019.1
20260504194450 81 264 3.0 7.0 0.00 0.00 0.00 31 1019.3
20260504193946 82 81 2.0 7.0 0.00 0.00 0.00 30 1019.2
20260504193443 80 254 4.0 8.0 0.00 0.00 0.00 31 1019.5
20260504192942 81 262 5.0 9.0 0.00 0.00 0.00 29 1019.1
20260504192438 80 72 0.0 5.0 0.00 0.00 0.00 33 1019.3
20260504191938 81 144 2.0 3.0 0.00 0.00 0.00 31 1019.4
20260504191435 81 94 3.0 4.0 0.00 0.00 0.00 33 1019.6
20260504190930 79 12 2.0 4.0 0.00 0.00 0.00 30 1019.5
20260504190426 80 278 4.0 7.0 0.00 0.00 0.00 32 1019.5
20260504185923 80 339 0.0 4.0 0.00 0.00 0.00 32 1019.6
20260504185420 79 195 4.0 8.0 0.00 0.00 0.00 30 1019.9
20260504184916 79 270 4.0 8.0 0.00 0.00 0.00 32 1019.9
20260504184412 80 255 3.0 5.0 0.00 0.00 0.00 32 1020.1
20260504183908 79 207 3.0 8.0 0.00 0.00 0.00 32 1020.3
20260504183405 80 145 7.0 8.0 0.00 0.00 0.00 36 1020.2
20260504182903 79 227 3.0 5.0 0.00 0.00 0.00 32 1020.2
20260504182400 78 225 2.0 4.0 0.00 0.00 0.00 32 1020.2
20260504181856 78 213 3.0 8.0 0.00 0.00 0.00 34 1020.3
20260504181354 78 251 2.0 8.0 0.00 0.00 0.00 33 1020.5
20260504180853 78 272 6.0 8.0 0.00 0.00 0.00 34 1020.5
20260504180351 79 261 2.0 4.0 0.00 0.00 0.00 37 1020.3
20260504175849 79 105 2.0 7.0 0.00 0.00 0.00 36 1020.8
20260504175345 77 16 0.0 7.0 0.00 0.00 0.00 33 1020.8
20260504174844 77 200 3.0 5.0 0.00 0.00 0.00 34 1020.9
20260504174341 77 238 5.0 9.0 0.00 0.00 0.00 35 1020.9
20260504173838 77 217 5.0 8.0 0.00 0.00 0.00 35 1020.8
20260504173334 77 291 1.0 8.0 0.00 0.00 0.00 35 1021.0
20260504172831 78 259 4.0 5.0 0.00 0.00 0.00 32 1020.8
20260504172328 78 174 4.0 5.0 0.00 0.00 0.00 36 1020.9
20260504171824 77 225 5.0 5.0 0.00 0.00 0.00 33 1020.9
20260504171321 79 319 0.0 5.0 0.00 0.00 0.00 34 1021.0
20260504170818 78 240 1.0 3.0 0.00 0.00 0.00 38 1021.0
20260504170315 78 259 2.0 3.0 0.00 0.00 0.00 37 1021.2
20260504160233 74 219 3.0 13.0 0.00 0.00 0.00 38 1021.9
20260504150659 73 213 2.0 5.0 0.00 0.00 0.00 49 1022.4
20260504150156 71 244 5.0 8.0 0.00 0.00 0.00 47 1022.4
20260504141124 70 243 0.0 4.0 0.00 0.00 0.00 51 1022.5
20260504140621 70 26 0.0 4.0 0.00 0.00 0.00 57 1022.5
20260504140117 68 63 0.0 3.0 0.00 0.00 0.00 56 1022.9
20260504130545 62 203 0.0 2.0 0.00 0.00 0.00 72 1022.8
20260504110433 44 90 0.0 0.0 0.00 0.00 0.00 98 1022.6
20260504100349 45 123 0.0 0.0 0.00 0.00 0.00 97 1022.0
20260504081742 47 353 0.0 1.0 0.00 0.00 0.00 93 1021.6
20260504081239 47 81 0.0 0.0 0.00 0.00 0.00 93 1021.9
20260504080736 47 83 0.0 1.0 0.00 0.00 0.00 93 1021.6
20260504080232 47 286 0.0 0.0 0.00 0.00 0.00 93 1021.7
20260504070200 48 117 0.0 0.0 0.00 0.00 0.00 90 1021.8
20260504060120 50 157 1.0 2.0 0.00 0.00 0.00 87 1022.1
20260504050548 51 237 0.0 1.0 0.00 0.00 0.00 88 1022.1
20260504045542 51 246 0.0 0.0 0.00 0.00 0.00 89 1022.2
20260504045037 51 246 0.0 1.0 0.00 0.00 0.00 89 1022.2
20260504044535 51 188 0.0 0.0 0.00 0.00 0.00 88 1022.2
20260504044032 51 131 2.0 2.0 0.00 0.00 0.00 88 1022.3
20260504043529 52 145 1.0 2.0 0.00 0.00 0.00 88 1022.1
20260504043026 52 99 0.0 0.0 0.00 0.00 0.00 87 1022.0
20260504042523 52 99 0.0 0.0 0.00 0.00 0.00 87 1022.1
20260504042020 53 246 0.0 0.0 0.00 0.00 0.00 87 1022.0
20260504041516 53 246 0.0 0.0 0.00 0.00 0.00 87 1022.1
20260504041012 53 246 0.0 0.0 0.00 0.00 0.00 86 1022.1
20260504040510 53 294 0.0 2.0 0.00 0.00 0.00 87 1022.3
20260504040006 52 165 0.0 1.0 0.00 0.01 0.01 87 1022.1
20260504035503 53 165 1.0 1.0 0.00 0.01 0.01 86 1022.1
20260504034959 53 106 0.0 1.0 0.00 0.01 0.01 85 1022.1
20260504034457 53 75 1.0 1.0 0.00 0.01 0.01 85 1022.1
20260504033954 53 96 1.0 1.0 0.00 0.01 0.01 84 1021.9
20260504033452 53 99 0.0 0.0 0.00 0.01 0.01 84 1022.1
20260504032949 53 126 0.0 0.0 0.00 0.01 0.01 83 1022.0
20260504032446 54 126 0.0 0.0 0.00 0.01 0.01 82 1022.2
20260504031942 54 126 0.0 0.0 0.00 0.01 0.01 82 1021.9
20260504031439 54 126 0.0 0.0 0.00 0.01 0.01 80 1021.9
20260504030936 55 126 0.0 0.0 0.00 0.01 0.01 80 1021.9
20260504030433 55 157 0.0 2.0 0.00 0.01 0.01 80 1022.0
20260504025929 55 157 1.0 2.0 0.00 0.01 0.01 80 1021.9
20260504025426 55 180 0.0 2.0 0.00 0.01 0.01 79 1022.0
20260504024923 55 160 0.0 1.0 0.00 0.01 0.01 79 1022.1
20260504024420 55 168 1.0 2.0 0.00 0.01 0.01 78 1021.8
20260504023917 55 165 0.0 0.0 0.00 0.01 0.01 78 1021.9
20260504023413 56 180 0.0 0.0 0.00 0.01 0.01 76 1021.9
20260504022909 56 180 0.0 0.0 0.00 0.01 0.01 75 1021.9
20260504022406 56 186 1.0 1.0 0.00 0.01 0.01 75 1021.9
20260504021902 56 188 0.0 0.0 0.00 0.01 0.01 75 1021.8
20260504021400 56 165 0.0 0.0 0.00 0.01 0.01 78 1021.9
20260504020857 56 165 0.0 0.0 0.00 0.01 0.01 78 1021.6
20260504020353 56 165 0.0 0.0 0.00 0.01 0.01 78 1021.4
20260504015849 57 165 0.0 0.0 0.00 0.01 0.01 77 1021.7
20260504015346 57 165 0.0 0.0 0.00 0.01 0.01 76 1021.7
20260504014842 58 165 0.0 1.0 0.00 0.01 0.01 75 1021.4